[[{"header":{"parameterUnit":"m.s-1","parameterCategory":2,"la1":30.2991,"la2":30.254,"lo1":-89.0895,"lo2":-89.0444,"dy":0.0017,"dx":0.0017,"nx":28,"ny":28,"refTime":"2024-06-10T03:00:00:Z","depth":"0","parameterNumber":2,"parameterNumberName":"U-component_of_CURRENTS"},"data":[0,0,0,0,0,0,0,0,0,0,0,0,0,0,0,0,0,0,0,0,0,0,0,0,0,0,0,0,0,0,0,0,0,0,0,0,0,0,0,0,0,0,0,0,0,0,0,0,0,0,0,0,0,0,0,0,0,0,0.3597,0.3599,0,0.3737,0.3739,0.374,0.3764,0.3763,0.3762,0.3761,0.3812,0.3814,0.3817,0,0,0,0,0,0,0,0,0,0,0,0,0,0.339,0.3393,0.3597,0.3599,0.3601,0.3737,0.3739,0.3741,0.3765,0.3763,0.3762,0.3761,0.3811,0.3814,0.3817,0,0,0,0,0,0,0,0,0,0,0,0,0,0.3499,0.3395,0.3597,0.3629,0.3634,0.3737,0.3739,0.3741,0.3765,0.3763,0.3762,0.376,0.381,0.3814,0.3817,0.3873,0,0,0.3828,0.383,0,0,0,0,0,0,0,0,0.3493,0.3507,0.3623,0.3627,0.3632,0.3732,0.3685,0.3781,0.3765,0.3715,0.3761,0.3759,0.3779,0.3785,0.3815,0.3876,0.3878,0.3828,0.3831,0.3832,0.3833,0,0,0,0,0,0,0,0.3485,0.3501,0.3652,0.3625,0.3631,0.3651,0.3664,0.3704,0.3752,0.3719,0.3721,0.3738,0.378,0.3812,0.3816,0.3879,0.3828,0.3832,0.3834,0.3835,0.4015,0.4017,0,0,0,0,0,0,0.347,0.3494,0.3648,0.3656,0.3558,0.3656,0.3671,0.3701,0.3754,0.3761,0.374,0.3739,0.3806,0.3812,0.3818,0.3978,0.3832,0.3836,0.3838,0.4012,0.4015,0.4018,0,0,0,0,0,0,0.3465,0.3483,0.3642,0.3577,0.3599,0.3661,0.3696,0.3705,0.3741,0.3771,0.3776,0.3765,0.3805,0.3813,0.3887,0.3975,0.3837,0.384,0.4009,0.4013,0.4017,0.4238,0,0,0,0,0,0,0.3459,0.3481,0.3505,0.3577,0.3602,0.3724,0.3698,0.3709,0.3754,0.3754,0.3794,0.3797,0.3805,0.3882,0.389,0.3978,0.3843,0.4006,0.4011,0.4016,0.4227,0.4249,0.4267,0,0,0,0,0,0.3451,0.3499,0.3506,0.3525,0.3632,0.3727,0.3743,0.3778,0.3756,0.3798,0.3828,0.3796,0.3917,0.3888,0.3897,0.3988,0.4003,0.401,0.4015,0.4218,0.4245,0.4267,0,0,0,0,0,0,0.3442,0.3509,0.3517,0.3588,0.3657,0.3731,0.3779,0.3787,0.3845,0.3841,0.3846,0.3855,0.3959,0.3927,0.3893,0.4046,0.3949,0.3957,0.41,0.4125,0.4144,0.4118,0.3846,0,0,0,0,0,0.3447,0.3488,0.3563,0.3622,0.366,0.3716,0.3757,0.3781,0.3837,0.386,0.3888,0.3918,0.3993,0.4017,0.4065,0.4148,0.4125,0.4201,0.4221,0.4238,0.4219,0.4289,0.4315,0.4037,0.4037,0.4037,0,0,0.3457,0.3502,0.3525,0.3621,0.3677,0.3749,0.3738,0.3815,0.3878,0.3857,0.3952,0.4,0.4031,0.4148,0.4186,0.413,0.4311,0.4246,0.4262,0.4232,0.4299,0.4326,0.435,0.4041,0.4041,0.404,0,0,0.3502,0.3547,0.3595,0.3656,0.3742,0.3785,0.3806,0.3889,0.3935,0.4037,0.4053,0.4148,0.4223,0.4291,0.4328,0.4473,0.4427,0.4478,0.4558,0.463,0.4654,0.4674,0.4712,0.4734,0.4476,0.4477,0.4477,0,0.3515,0.359,0.3629,0.3699,0.376,0.3799,0.3879,0.3943,0.4036,0.4109,0.4082,0.4276,0.43,0.4473,0.452,0.4527,0.4531,0.448,0.466,0.4679,0.4697,0.473,0.4752,0.4488,0.4487,0.4486,0.4485,0,0.3598,0.366,0.3707,0.3797,0.3866,0.3951,0.4034,0.4113,0.4163,0.4237,0.4417,0.4481,0.4585,0.4629,0.462,0.4775,0.4731,0.4696,0.4608,0.4739,0.4765,0.4783,0.4504,0.45,0.4497,0.4494,0,0,0.3631,0.3741,0.3755,0.3815,0.3929,0.3999,0.4121,0.4272,0.4358,0.4479,0.4617,0.4778,0.4807,0.4843,0.4871,0.4923,0.5068,0.4852,0.485,0.4903,0.5209,0.5144,0.5157,0.5072,0.5076,0.5079,0.519,0,0.3696,0.3817,0.386,0.399,0.4076,0.4154,0.4259,0.439,0.4496,0.463,0.4764,0.4887,0.4892,0.4941,0.5022,0.5053,0.512,0.5039,0.5057,0.5056,0.4997,0.5178,0.4923,0.4997,0.5208,0.5211,0.5213,0,0.3776,0.3848,0.3972,0.4103,0.4147,0.4217,0.4399,0.4496,0.469,0.4775,0.4942,0.5008,0.5169,0.51,0.5272,0.522,0.5222,0.523,0.5235,0.5096,0.5027,0.4891,0.5021,0.4933,0.524,0.5238,0.5236,0,0.38,0.3936,0.4033,0.4082,0.4226,0.4303,0.4382,0.4555,0.4671,0.4848,0.4946,0.5138,0.5233,0.53,0.5355,0.531,0.549,0.5431,0.5389,0.5383,0.5124,0.5089,0.517,0.5526,0.5525,0.5525,0.5525,0,0.3875,0.396,0.4044,0.4104,0.4234,0.4313,0.4468,0.4571,0.4733,0.4878,0.5006,0.5148,0.5279,0.5406,0.5413,0.5489,0.5561,0.5432,0.5428,0.5195,0.5167,0.5036,0.4986,0.5529,0.5528,0.5528,0.5527,0,0.3917,0.3967,0.409,0.4212,0.4252,0.4344,0.4509,0.4619,0.4745,0.4925,0.4983,0.5206,0.5364,0.548,0.5589,0.5569,0.5466,0.5606,0.5316,0.5275,0.5115,0.5084,0.4925,0.4789,0.5575,0.5574,0.5574,0,0.396,0.4019,0.4146,0.4209,0.4268,0.4398,0.4492,0.4628,0.4733,0.4964,0.505,0.5257,0.5396,0.5575,0.5559,0.5594,0.5457,0.5363,0.523,0.5109,0.5073,0.4883,0.4766,0.4982,0.4977,0.4973,0.4969,0,0.4056,0.4085,0.4175,0.4258,0.4351,0.446,0.4577,0.4664,0.4814,0.492,0.5071,0.5179,0.5366,0.5315,0.5377,0.5356,0.5104,0.5274,0.5224,0.469,0.4408,0.4271,0.4902,0.493,0.4934,0.4937,0.4939,0.4941,0.4128,0.418,0.4245,0.4327,0.4399,0.4453,0.4474,0.4581,0.4672,0.4722,0.495,0.4961,0.5044,0.5099,0.5061,0.4859,0.487,0.4693,0.4692,0.4533,0.4313,0.4864,0.4843,0.4846,0.4849,0.4852,0.4854,0,0.4191,0.4228,0.4304,0.4343,0.4337,0.439,0.4466,0.4411,0.4395,0.4512,0.4554,0.4561,0.4508,0.4539,0.4456,0.4307,0.4066,0.4201,0.387,0.3805,0.4365,0.4253,0.401,0.401,0.4011,0.4011,0.4011,0.4011,0.4236,0.4287,0.4284,0.4245,0.4234,0.4128,0.4111,0.4027,0.4032,0.3939,0.3885,0.3977,0.4188,0.4217,0.4063,0.3943,0.3675,0.3463,0.3538,0.3947,0.3991,0.4034,0.3921,0.3612,0.3612,0.2758,0.2752,0.2747]},{"header":{"parameterUnit":"m.s-1","parameterCategory":2,"la1":30.2991,"la2":30.254,"lo1":-89.0895,"lo2":-89.0444,"dy":0.0017,"dx":0.0017,"nx":28,"ny":28,"refTime":"2024-06-10T03:00:00:Z","depth":"0","parameterNumber":3,"parameterNumberName":"V-component_of_CURRENTS"},"data":[0,0,0,0,0,0,0,0,0,0,0,0,0,0,0,0,0,0,0,0,0,0,0,0,0,0,0,0,0,0,0,0,0,0,0,0,0,0,0,0,0,0,0,0,0,0,0,0,0,0,0,0,0,0,0,0,0,0,0.0233,0.0233,0,0.0188,0.0188,0.0187,0.0136,0.0135,0.0135,0.0135,0.0011,0.0008,0.0005,0,0,0,0,0,0,0,0,0,0,0,0,0,0.0207,0.0207,0.0234,0.0233,0.0233,0.0189,0.0188,0.0187,0.0136,0.0135,0.0135,0.0134,0.0012,0.0008,0.0005,0,0,0,0,0,0,0,0,0,0,0,0,0,0.0192,0.0208,0.0234,0.0205,0.0202,0.0189,0.0188,0.0186,0.0136,0.0135,0.0135,0.0134,0.0013,0.0009,0.0004,-0.001,0,0,-0.0009,-0.0011,0,0,0,0,0,0,0,0,0.0193,0.0193,0.0209,0.0207,0.0204,0.017,0.0133,0.0118,0.0136,0.0157,0.0134,0.0134,0.0059,0.0051,0.004,-0.0015,-0.0021,-0.0009,-0.0012,-0.0014,-0.0015,0,0,0,0,0,0,0,0.0194,0.0194,0.0212,0.0209,0.0206,0.0171,0.0168,0.013,0.0108,0.0155,0.0153,0.0153,0.0057,0.0045,0.0037,-0.0022,-0.0009,-0.0013,-0.0016,-0.0018,-0.0126,-0.0126,0,0,0,0,0,0,0.0212,0.0196,0.0214,0.0211,0.0201,0.0173,0.0169,0.0179,0.011,0.0101,0.0154,0.0151,0.0052,0.0042,0.0032,-0.0003,-0.0014,-0.0018,-0.002,-0.0126,-0.0126,-0.0126,0,0,0,0,0,0,0.0212,0.0214,0.0215,0.0204,0.0203,0.0175,0.0185,0.0178,0.0169,0.0111,0.0099,0.0152,0.0051,0.0038,-0.0008,-0.0007,-0.002,-0.0024,-0.0125,-0.0126,-0.0126,-0.0063,0,0,0,0,0,0,0.0211,0.0215,0.0227,0.0206,0.0204,0.0212,0.0186,0.0178,0.0172,0.0168,0.0105,0.0093,0.005,-0.0001,-0.0012,-0.0014,-0.0027,-0.0125,-0.0126,-0.0126,-0.0065,-0.0061,-0.0058,0,0,0,0,0,0.021,0.0235,0.0228,0.0231,0.0223,0.0213,0.0208,0.0183,0.0173,0.0171,0.0123,0.0095,-0.0012,-0.0004,-0.0017,-0.002,-0.0125,-0.0125,-0.0126,-0.0066,-0.0062,-0.0059,0,0,0,0,0,0,0.0225,0.0232,0.0224,0.0248,0.0233,0.0206,0.0209,0.0191,0.0155,0.0149,0.0091,0.0075,0.003,-0.0001,0.0009,-0.0054,-0.0073,-0.0076,-0.0023,-0.002,-0.0016,0.0055,-0.0031,0,0,0,0,0,0.0238,0.026,0.0248,0.0265,0.0264,0.0238,0.0233,0.0214,0.0181,0.0166,0.0122,0.007,0.0018,-0.0004,-0.0055,-0.0082,-0.0083,-0.0093,-0.009,-0.0087,-0.0039,-0.0037,-0.0027,-0.0128,-0.0128,-0.0128,0,0,0.0245,0.0255,0.0265,0.027,0.0259,0.0268,0.0232,0.0229,0.0229,0.0157,0.0139,0.0077,0.0011,-0.0029,-0.005,-0.0054,-0.0069,-0.0087,-0.0084,-0.0037,-0.0036,-0.0026,-0.0017,-0.0129,-0.0129,-0.0129,0,0,0.0281,0.0285,0.0316,0.0312,0.0308,0.0292,0.0296,0.027,0.0251,0.0224,0.0164,0.012,0.0044,0.0006,-0.0026,-0.0029,-0.0058,-0.0065,0.0018,0.0018,0.0027,0.0036,0.0014,0.0021,-0.0055,-0.0055,-0.0055,0,0.0289,0.0335,0.0319,0.0345,0.0356,0.031,0.0339,0.0311,0.0268,0.027,0.0227,0.0148,0.0073,0.0053,0.0033,-0.0016,-0.0028,0.0007,0.0027,0.0035,0.0043,0.0019,0.0025,-0.0052,-0.0052,-0.0053,-0.0053,0,0.0347,0.038,0.0398,0.0424,0.0424,0.0441,0.0409,0.0402,0.0373,0.0348,0.0322,0.0232,0.0204,0.0145,0.008,0.0091,0.0057,0.0025,0.0027,0.0058,0.0029,0.0034,-0.0048,-0.0049,-0.005,-0.0051,0,0,0.0379,0.0433,0.0439,0.0482,0.0474,0.0491,0.049,0.0495,0.0532,0.0459,0.051,0.0382,0.0354,0.0318,0.0234,0.0217,0.0214,0.0148,0.0146,0.0147,0.0203,0.0176,0.0179,0.0184,0.0186,0.0187,0.0149,0,0.0433,0.0522,0.0521,0.0594,0.0642,0.0612,0.0632,0.0622,0.0602,0.0629,0.0548,0.0545,0.0412,0.0409,0.0367,0.0267,0.0238,0.0227,0.0158,0.0157,0.0147,0.0189,0.0185,0.0152,0.0154,0.0155,0.0156,0,0.0496,0.0556,0.0649,0.0728,0.0746,0.0773,0.0834,0.0843,0.0843,0.0835,0.0821,0.076,0.0719,0.0609,0.0489,0.0489,0.0361,0.0271,0.0267,0.0242,0.0143,0.0126,0.0162,-0.0048,0.0164,0.0164,0.0163,0,0.0565,0.0649,0.0741,0.0762,0.0828,0.0871,0.0901,0.0914,0.0959,0.0986,0.1043,0.0965,0.0973,0.0817,0.0609,0.0557,0.0487,0.0391,0.0247,0.0242,0.0232,0.0224,0.0086,0.0324,0.0324,0.0324,0.0324,0,0.0642,0.0716,0.0791,0.0845,0.0961,0.097,0.1083,0.11,0.1161,0.1263,0.117,0.1253,0.103,0.0947,0.0712,0.0522,0.0568,0.0297,0.0251,0.0246,0.024,0.005,-0.0066,0.0323,0.0323,0.0323,0.0324,0,0.0707,0.0755,0.087,0.0965,0.1002,0.1087,0.12,0.1282,0.1334,0.1477,0.1506,0.149,0.14,0.1151,0.0926,0.0691,0.0359,0.039,0.0389,0.0345,-0.0004,-0.0116,-0.0275,-0.0367,0.0233,0.0232,0.0232,0,0.0756,0.0824,0.0954,0.1027,0.1077,0.1197,0.1282,0.1357,0.1458,0.1634,0.1724,0.1709,0.1723,0.1388,0.0984,0.0612,0.0371,0.0341,0.0236,0.0014,-0.0145,-0.025,-0.0323,0.0221,0.022,0.022,0.0219,0,0.0844,0.0885,0.0975,0.111,0.122,0.1356,0.1493,0.161,0.174,0.1899,0.2095,0.2139,0.1849,0.1503,0.0996,0.0718,0.0196,0.0319,0.0102,-0.0132,-0.0263,-0.0385,0.0183,0.0216,0.0216,0.0216,0.0217,0.0217,0.0901,0.0968,0.1069,0.1201,0.1331,0.1508,0.1651,0.1825,0.2051,0.2311,0.234,0.2446,0.1939,0.127,0.0884,0.0176,0.016,-0.008,-0.019,-0.0269,-0.0371,0.0187,0.0159,0.0159,0.0159,0.0159,0.0159,0,0.0963,0.1031,0.1149,0.1317,0.1464,0.1525,0.1784,0.1955,0.2258,0.2469,0.2642,0.2448,0.1821,0.1169,0.0222,-0.0266,-0.0443,-0.0523,-0.068,-0.0727,-0.0215,-0.0229,-0.0355,-0.0355,-0.0354,-0.0354,-0.0354,-0.0354,0.0997,0.1104,0.1158,0.1394,0.1521,0.1758,0.1929,0.2196,0.2398,0.2669,0.2728,0.2732,0.2251,0.0606,-0.0512,-0.076,-0.1067,-0.1149,-0.1297,-0.0972,-0.0939,-0.0909,-0.095,-0.1225,-0.1226,-0.1767,-0.1772,-0.1777]}],[{"header":{"parameterUnit":"m.s-1","parameterCategory":2,"la1":30.2991,"la2":30.254,"lo1":-89.0895,"lo2":-89.0444,"dy":0.0017,"dx":0.0017,"nx":28,"ny":28,"refTime":"2024-06-10T03:00:00:Z","depth":"2","parameterNumber":2,"parameterNumberName":"U-component_of_CURRENTS"},"data":[0,0,0,0,0,0,0,0,0,0,0,0,0,0,0,0,0,0,0,0,0,0,0,0,0,0,0,0,0,0,0,0,0,0,0,0,0,0,0,0,0,0,0,0,0,0,0,0,0,0,0,0,0,0,0,0,0,0,0.3114,0.3115,0,0.3168,0.3169,0.3169,0.3188,0.3188,0.3188,0.3188,0.3252,0.3253,0.3255,0,0,0,0,0,0,0,0,0,0,0,0,0,0.2973,0.2975,0.3114,0.3115,0.3116,0.3168,0.3169,0.3169,0.3188,0.3188,0.3188,0.3188,0.3251,0.3253,0.3255,0,0,0,0,0,0,0,0,0,0,0,0,0,0.3027,0.2976,0.3114,0.3135,0.3138,0.3168,0.3169,0.3169,0.3188,0.3188,0.3188,0.3189,0.3251,0.3253,0.3255,0.3262,0,0,0.3262,0.3263,0,0,0,0,0,0,0,0,0.3024,0.3031,0.3131,0.3134,0.3137,0.3176,0.3142,0.3202,0.3187,0.3164,0.3188,0.3189,0.323,0.3234,0.3236,0.3265,0.3267,0.3262,0.3263,0.3264,0.3265,0,0,0,0,0,0,0,0.302,0.3029,0.313,0.3132,0.3136,0.3124,0.3132,0.3153,0.3191,0.3166,0.3168,0.3182,0.3231,0.3234,0.3238,0.3268,0.3262,0.3264,0.3265,0.3266,0.3348,0.3349,0,0,0,0,0,0,0.3026,0.3026,0.3129,0.3133,0.3086,0.3127,0.3136,0.3159,0.319,0.3197,0.3182,0.3183,0.323,0.3236,0.3241,0.3396,0.3264,0.3266,0.3268,0.3348,0.3349,0.335,0,0,0,0,0,0,0.3023,0.3035,0.3127,0.3083,0.3095,0.313,0.3155,0.316,0.3183,0.3203,0.3209,0.3203,0.3231,0.3237,0.3276,0.3393,0.3267,0.3269,0.3347,0.3348,0.3349,0.3614,0,0,0,0,0,0,0.3019,0.3034,0.3052,0.3084,0.3098,0.3157,0.3156,0.3161,0.3192,0.3195,0.3223,0.3228,0.3232,0.3273,0.3278,0.3394,0.3271,0.3345,0.3347,0.3349,0.3604,0.3624,0.3641,0,0,0,0,0,0.3014,0.303,0.3052,0.3065,0.3122,0.3158,0.3163,0.3185,0.3193,0.3206,0.3227,0.3228,0.3286,0.3275,0.3281,0.3401,0.3345,0.3347,0.3349,0.3596,0.362,0.3641,0,0,0,0,0,0,0.2983,0.3036,0.306,0.3095,0.3134,0.3163,0.3175,0.3197,0.3223,0.3231,0.3243,0.325,0.3331,0.3294,0.3281,0.3413,0.3315,0.3318,0.35,0.3523,0.3541,0.3627,0.3273,0,0,0,0,0,0.2987,0.3022,0.3064,0.3104,0.3113,0.315,0.3168,0.3194,0.3222,0.3234,0.3263,0.3285,0.3338,0.3371,0.3383,0.3459,0.3432,0.3527,0.3546,0.3563,0.3627,0.364,0.3669,0.3356,0.3356,0.3356,0,0,0.2995,0.3028,0.3052,0.3102,0.3126,0.317,0.316,0.32,0.3272,0.3238,0.3328,0.335,0.3362,0.3459,0.3492,0.3454,0.3631,0.3565,0.3581,0.3638,0.3646,0.3677,0.3705,0.3357,0.3357,0.3357,0,0,0.3025,0.3048,0.3082,0.3119,0.3169,0.319,0.3209,0.3256,0.3303,0.3385,0.3399,0.3513,0.3527,0.3629,0.3667,0.3787,0.3719,0.3743,0.3944,0.3955,0.3984,0.4008,0.401,0.4033,0.3767,0.3768,0.3768,0,0.3031,0.3089,0.3099,0.3145,0.319,0.3206,0.3264,0.3316,0.3386,0.3474,0.3434,0.362,0.3647,0.3856,0.391,0.3857,0.3799,0.3879,0.399,0.4014,0.4034,0.403,0.4052,0.3781,0.3779,0.3778,0.3777,0,0.3094,0.3143,0.3162,0.3236,0.328,0.3328,0.34,0.3468,0.3525,0.362,0.3817,0.388,0.4006,0.4039,0.403,0.4219,0.4108,0.4009,0.3959,0.4084,0.4068,0.4086,0.3799,0.3795,0.3791,0.3788,0,0,0.3111,0.3187,0.3202,0.3259,0.3335,0.3385,0.3505,0.3648,0.3767,0.3897,0.4085,0.4278,0.4342,0.4388,0.4412,0.4477,0.4602,0.4318,0.4312,0.4367,0.4591,0.4463,0.4468,0.448,0.4485,0.4489,0.4521,0,0.3161,0.3251,0.329,0.3408,0.3457,0.353,0.3639,0.3792,0.3907,0.4077,0.4277,0.4433,0.4459,0.4532,0.4627,0.4566,0.4658,0.4602,0.4421,0.4418,0.4328,0.449,0.4158,0.4153,0.4538,0.4541,0.4543,0,0.3221,0.3275,0.3375,0.3506,0.3536,0.3614,0.3807,0.3908,0.4155,0.4257,0.4502,0.4601,0.4836,0.4761,0.4876,0.4801,0.476,0.4723,0.4718,0.4535,0.4326,0.4083,0.417,0.4572,0.457,0.4568,0.4566,0,0.3238,0.335,0.343,0.3477,0.3611,0.37,0.3777,0.399,0.4116,0.4375,0.4499,0.4755,0.4857,0.4886,0.4905,0.4845,0.4938,0.4817,0.4707,0.4694,0.4357,0.4307,0.493,0.4929,0.4929,0.4929,0.4929,0,0.3284,0.3366,0.3443,0.3499,0.3632,0.3713,0.3885,0.4009,0.4209,0.4383,0.459,0.4757,0.4873,0.4965,0.4942,0.4901,0.4974,0.4813,0.4725,0.4431,0.4391,0.4693,0.4665,0.493,0.493,0.493,0.493,0,0.3313,0.3358,0.3467,0.3591,0.3642,0.3738,0.3917,0.4037,0.4199,0.4415,0.4507,0.4756,0.4844,0.4963,0.4984,0.492,0.4897,0.487,0.4536,0.441,0.463,0.4615,0.4732,0.4728,0.4725,0.4722,0.472,0,0.3334,0.338,0.3513,0.3559,0.362,0.3755,0.3848,0.4033,0.4153,0.441,0.4512,0.4703,0.4805,0.4834,0.4785,0.4754,0.4869,0.4405,0.4289,0.4725,0.4626,0.4615,0.4604,0.393,0.3922,0.3915,0.3909,0,0.3371,0.341,0.347,0.3539,0.364,0.3753,0.3887,0.4004,0.4201,0.4312,0.4441,0.4519,0.4618,0.4435,0.4428,0.4361,0.4377,0.4261,0.4805,0.4037,0.3972,0.3873,0.3888,0.3848,0.3854,0.3858,0.3862,0.3864,0.3372,0.3405,0.3434,0.3534,0.3599,0.3683,0.3727,0.3841,0.3942,0.4016,0.4213,0.4145,0.4178,0.3975,0.385,0.3777,0.4059,0.3858,0.3878,0.3905,0.3812,0.3746,0.3562,0.3566,0.357,0.3573,0.3576,0,0.3325,0.3386,0.3424,0.3487,0.3467,0.3563,0.3686,0.3639,0.3639,0.3718,0.3716,0.3404,0.3288,0.3351,0.3147,0.3113,0.3061,0.2983,0.2901,0.2967,0.3024,0.2883,0.2388,0.2384,0.238,0.2376,0,0,0.3309,0.3309,0.3344,0.3321,0.3345,0.3283,0.3308,0.3212,0.32,0.3035,0.2948,0.3127,0.3261,0.2782,0.2719,0.2528,0.2716,0.2423,0.339,0.3363,0.3414,0.3559,0.3421,0,0,0,0,0]},{"header":{"parameterUnit":"m.s-1","parameterCategory":2,"la1":30.2991,"la2":30.254,"lo1":-89.0895,"lo2":-89.0444,"dy":0.0017,"dx":0.0017,"nx":28,"ny":28,"refTime":"2024-06-10T03:00:00:Z","depth":"2","parameterNumber":3,"parameterNumberName":"V-component_of_CURRENTS"},"data":[0,0,0,0,0,0,0,0,0,0,0,0,0,0,0,0,0,0,0,0,0,0,0,0,0,0,0,0,0,0,0,0,0,0,0,0,0,0,0,0,0,0,0,0,0,0,0,0,0,0,0,0,0,0,0,0,0,0,0.0115,0.0114,0,0.0067,0.0066,0.0065,0.002,0.002,0.002,0.0019,-0.0087,-0.0089,-0.0092,0,0,0,0,0,0,0,0,0,0,0,0,0,0.0098,0.0099,0.0115,0.0114,0.0114,0.0067,0.0066,0.0065,0.002,0.002,0.0019,0.0019,-0.0086,-0.0089,-0.0092,0,0,0,0,0,0,0,0,0,0,0,0,0,0.0081,0.0099,0.0115,0.0088,0.0085,0.0067,0.0066,0.0065,0.002,0.002,0.0019,0.0019,-0.0085,-0.0089,-0.0093,-0.0107,0,0,-0.0104,-0.0106,0,0,0,0,0,0,0,0,0.0082,0.0081,0.0092,0.009,0.0087,0.0052,0.0021,0.0006,0.002,0.0042,0.0019,0.0019,-0.0044,-0.0051,-0.0062,-0.0112,-0.0116,-0.0105,-0.0107,-0.0108,-0.011,0,0,0,0,0,0,0,0.0083,0.0082,0.0093,0.0092,0.0089,0.0055,0.0052,0.0018,-0.0001,0.004,0.0037,0.0037,-0.0046,-0.0058,-0.0065,-0.0118,-0.0104,-0.0108,-0.011,-0.0112,-0.0189,-0.0189,0,0,0,0,0,0,0.0099,0.0084,0.0094,0.0092,0.0086,0.0056,0.0053,0.0061,0.0,-0.0008,0.0037,0.0035,-0.0052,-0.0061,-0.0069,-0.0115,-0.0108,-0.0112,-0.0114,-0.0189,-0.0189,-0.0189,0,0,0,0,0,0,0.0099,0.0101,0.0096,0.0088,0.0086,0.0058,0.0067,0.006,0.0053,-0.0,-0.0011,0.0037,-0.0052,-0.0064,-0.0098,-0.0118,-0.0114,-0.0117,-0.0189,-0.0189,-0.0189,-0.019,0,0,0,0,0,0,0.0099,0.0101,0.0113,0.009,0.0087,0.0093,0.0067,0.006,0.0054,0.005,-0.0004,-0.0015,-0.0054,-0.0092,-0.0102,-0.0123,-0.012,-0.019,-0.0189,-0.0189,-0.019,-0.019,-0.0189,0,0,0,0,0,0.0099,0.0119,0.0114,0.0115,0.0104,0.0094,0.0089,0.0064,0.0055,0.0055,0.0015,-0.0013,-0.0096,-0.0095,-0.0106,-0.013,-0.019,-0.0189,-0.0189,-0.019,-0.019,-0.0189,0,0,0,0,0,0,0.011,0.0116,0.0109,0.0128,0.0115,0.0087,0.009,0.0073,0.0043,0.0038,-0.0013,-0.0026,-0.0065,-0.0086,-0.0083,-0.0146,-0.0146,-0.0148,-0.0144,-0.0143,-0.0143,-0.005,-0.0123,0,0,0,0,0,0.0121,0.0144,0.013,0.0146,0.0144,0.0119,0.0113,0.0095,0.0067,0.0054,0.0018,-0.0024,-0.0072,-0.0096,-0.0133,-0.0166,-0.0157,-0.0185,-0.0184,-0.0184,-0.0114,-0.0113,-0.0105,-0.0187,-0.0187,-0.0187,0,0,0.0128,0.0137,0.0147,0.015,0.014,0.0148,0.0113,0.011,0.0106,0.0047,0.0032,-0.0022,-0.0077,-0.0122,-0.014,-0.0144,-0.0172,-0.0183,-0.0183,-0.0111,-0.0111,-0.0103,-0.0096,-0.0186,-0.0187,-0.0187,0,0,0.016,0.0163,0.0193,0.0193,0.0189,0.0171,0.0176,0.0152,0.0129,0.0106,0.0054,0.0016,-0.0055,-0.0092,-0.0125,-0.0131,-0.0167,-0.0173,-0.0103,-0.0106,-0.0099,-0.0091,-0.0137,-0.0134,-0.0177,-0.0177,-0.0177,0,0.0166,0.0209,0.0195,0.0224,0.0236,0.019,0.0218,0.0184,0.0149,0.0147,0.0108,0.0046,-0.0027,-0.0054,-0.008,-0.0128,-0.0148,-0.0114,-0.0104,-0.0096,-0.0089,-0.0137,-0.0133,-0.0177,-0.0177,-0.0177,-0.0177,0,0.022,0.0254,0.0272,0.0299,0.0302,0.0318,0.0283,0.0277,0.0244,0.0214,0.0191,0.011,0.0093,0.0021,-0.0045,-0.0042,-0.0085,-0.0106,-0.0103,-0.008,-0.0134,-0.013,-0.0177,-0.0177,-0.0177,-0.0177,0,0,0.0242,0.0301,0.0309,0.0352,0.035,0.0366,0.0363,0.0361,0.0389,0.0322,0.037,0.0241,0.0221,0.019,0.0101,0.0073,0.0037,0.0001,0.0001,-0.0038,-0.0003,-0.0061,-0.0064,0.0003,0.0005,0.0007,-0.0086,0,0.0292,0.0377,0.0384,0.0458,0.0502,0.0482,0.0496,0.0483,0.0454,0.0481,0.0402,0.0399,0.027,0.0265,0.0217,0.0101,0.006,0.0064,-0.0018,-0.0019,-0.0069,-0.0055,-0.0016,-0.0096,-0.0082,-0.0082,-0.0081,0,0.0349,0.0407,0.0494,0.0579,0.0596,0.0626,0.0682,0.0687,0.0683,0.0672,0.0666,0.061,0.056,0.0465,0.0317,0.0318,0.0182,0.0081,0.0074,0.0051,-0.0066,-0.0102,-0.0089,-0.0075,-0.0075,-0.0076,-0.0076,0,0.0403,0.049,0.0573,0.0599,0.0668,0.0712,0.0743,0.0752,0.0788,0.0817,0.087,0.0794,0.0791,0.0638,0.0405,0.0364,0.0251,0.0167,-0.0009,-0.0018,0.0028,0.002,0.0108,0.0108,0.0108,0.0108,0.0108,0,0.047,0.0541,0.0614,0.0667,0.0779,0.0795,0.0898,0.0921,0.098,0.1068,0.0988,0.1055,0.084,0.0733,0.0497,0.0263,0.032,0.0042,-0.002,0.0016,0.001,0.0059,0.0055,0.0105,0.0105,0.0106,0.0107,0,0.0523,0.0568,0.0678,0.0774,0.0813,0.0894,0.1009,0.1075,0.1128,0.1262,0.1293,0.1255,0.112,0.0872,0.0624,0.0395,0.0168,0.0068,0.0101,0.0046,-0.0134,-0.0137,-0.013,-0.0132,-0.0134,-0.0136,-0.0137,0,0.0563,0.0626,0.0756,0.0827,0.0879,0.0994,0.1068,0.1143,0.1235,0.1385,0.1469,0.1408,0.1363,0.0969,0.0596,0.0213,0.0159,-0.002,-0.0077,-0.0084,-0.0146,-0.0146,-0.0147,-0.0059,-0.006,-0.006,-0.0061,0,0.0643,0.0683,0.0769,0.0902,0.1003,0.1124,0.1255,0.1364,0.1485,0.1621,0.1767,0.1751,0.1412,0.1051,0.0535,0.0271,0.0041,-0.0045,-0.001,-0.0006,-0.0024,-0.0083,-0.0084,-0.0065,-0.0064,-0.0064,-0.0064,-0.0064,0.0692,0.0754,0.0852,0.0975,0.1111,0.1261,0.1396,0.1544,0.174,0.1945,0.1929,0.191,0.1518,0.0852,0.043,-0.0001,0.0008,-0.0172,-0.0167,-0.0162,-0.0137,-0.0157,-0.0222,-0.0222,-0.0222,-0.0223,-0.0223,0,0.0733,0.0796,0.0914,0.1081,0.1238,0.1294,0.1528,0.1673,0.1941,0.2024,0.2123,0.1747,0.1343,0.0893,0.0259,-0.0142,-0.0161,-0.0276,-0.0203,-0.0195,-0.019,-0.0164,-0.0258,-0.0259,-0.026,-0.0261,0,0,0.0754,0.0833,0.0877,0.1131,0.129,0.1527,0.1682,0.1893,0.2024,0.2112,0.2079,0.1963,0.1451,0.0975,0.0461,0.0107,0.0035,0.0025,0.0096,0.025,0.026,-0.0085,-0.0033,0,0,0,0,0]}],[{"header":{"parameterUnit":"m.s-1","parameterCategory":2,"la1":30.2991,"la2":30.254,"lo1":-89.0895,"lo2":-89.0444,"dy":0.0017,"dx":0.0017,"nx":28,"ny":28,"refTime":"2024-06-10T03:00:00:Z","depth":"4","parameterNumber":2,"parameterNumberName":"U-component_of_CURRENTS"},"data":[0,0,0,0,0,0,0,0,0,0,0,0,0,0,0,0,0,0,0,0,0,0,0,0,0,0,0,0,0,0,0,0,0,0,0,0,0,0,0,0,0,0,0,0,0,0,0,0,0,0,0,0,0,0,0,0,0,0,0.1712,0.1713,0,0.1733,0.1733,0.1733,0.1806,0.1808,0.181,0.1811,0.1876,0.1876,0.1876,0,0,0,0,0,0,0,0,0,0,0,0,0,0.1726,0.1725,0.1712,0.1713,0.1713,0.1733,0.1733,0.1733,0.1806,0.1808,0.181,0.1812,0.1876,0.1876,0.1876,0,0,0,0,0,0,0,0,0,0,0,0,0,0.1729,0.1725,0.1712,0.1753,0.1757,0.1733,0.1733,0.1733,0.1805,0.1808,0.1811,0.1813,0.1876,0.1876,0.1876,0.1821,0,0,0.1876,0.1876,0,0,0,0,0,0,0,0,0.1728,0.1728,0.1747,0.175,0.1755,0.1772,0.1762,0.1766,0.1805,0.1785,0.1812,0.1815,0.1844,0.1847,0.1841,0.1824,0.1827,0.1876,0.1876,0.1876,0.1876,0,0,0,0,0,0,0,0.1728,0.1727,0.1718,0.1747,0.1752,0.1768,0.1771,0.1762,0.1798,0.1787,0.1793,0.1797,0.1847,0.1841,0.1844,0.1828,0.1876,0.1876,0.1876,0.1876,0.1945,0.1946,0,0,0,0,0,0,0.1726,0.1727,0.1718,0.1719,0.175,0.1765,0.1769,0.1762,0.1797,0.1806,0.1795,0.1801,0.184,0.1843,0.1846,0.1876,0.1876,0.1876,0.1876,0.1943,0.1945,0.1947,0,0,0,0,0,0,0.1726,0.1725,0.1717,0.1726,0.1727,0.1762,0.1754,0.1761,0.1789,0.1804,0.1813,0.182,0.1842,0.1846,0.1884,0.1876,0.1876,0.1876,0.1941,0.1944,0.1946,0.1877,0,0,0,0,0,0,0.1726,0.1724,0.1725,0.1725,0.1726,0.1721,0.1751,0.1759,0.1786,0.1795,0.1827,0.1834,0.1844,0.1884,0.1884,0.1876,0.1876,0.1938,0.1942,0.1945,0.1877,0.1877,0.1877,0,0,0,0,0,0.1727,0.1705,0.1725,0.1725,0.1723,0.1722,0.1723,0.1757,0.1785,0.1793,0.1834,0.1835,0.1907,0.1885,0.1885,0.1876,0.1937,0.1941,0.1945,0.1877,0.1877,0.1877,0,0,0,0,0,0,0.1707,0.1711,0.1732,0.1714,0.1731,0.1736,0.1751,0.1765,0.1798,0.1831,0.1841,0.185,0.188,0.1901,0.1877,0.1917,0.1928,0.1932,0.1877,0.1877,0.1877,0.1888,0.1876,0,0,0,0,0,0.1702,0.1704,0.1707,0.1706,0.1716,0.1738,0.1746,0.1774,0.1798,0.1817,0.1841,0.188,0.1887,0.1904,0.1924,0.1931,0.2012,0.1938,0.1938,0.1938,0.1953,0.218,0.2203,0.1961,0.1961,0.196,0,0,0.17,0.1704,0.1708,0.1706,0.173,0.173,0.1751,0.1781,0.1786,0.1816,0.1852,0.1875,0.1893,0.1909,0.1926,0.193,0.2022,0.1943,0.1941,0.1958,0.2187,0.2211,0.2232,0.1963,0.1963,0.1962,0,0,0.1694,0.1702,0.1704,0.1715,0.1751,0.1753,0.1764,0.1791,0.1813,0.1833,0.1863,0.1878,0.191,0.1906,0.1906,0.1918,0.2015,0.1956,0.1956,0.2175,0.2197,0.2218,0.2225,0.2247,0.1957,0.1957,0.1957,0,0.1696,0.1695,0.1706,0.1713,0.1737,0.1761,0.1778,0.1774,0.1814,0.1844,0.1853,0.1912,0.1889,0.1903,0.1902,0.1905,0.2036,0.1936,0.2176,0.2199,0.2222,0.2226,0.2252,0.1954,0.1954,0.1955,0.1955,0,0.1686,0.17,0.1708,0.1725,0.1742,0.1767,0.1773,0.1805,0.1833,0.184,0.1891,0.1879,0.1941,0.1903,0.1888,0.2019,0.205,0.2146,0.2169,0.2242,0.2239,0.2267,0.195,0.1951,0.1952,0.1952,0,0,0.166,0.1695,0.1706,0.1738,0.1766,0.1782,0.1799,0.1825,0.1868,0.1879,0.1958,0.1888,0.1946,0.1953,0.1955,0.2074,0.2231,0.2193,0.2206,0.2182,0.2646,0.2426,0.2434,0.2463,0.247,0.2476,0.2531,0,0.1665,0.169,0.1707,0.1749,0.1766,0.1813,0.1819,0.1854,0.1895,0.1973,0.1963,0.2035,0.1949,0.2022,0.2119,0.2259,0.2332,0.22,0.2595,0.26,0.239,0.247,0.2501,0.2553,0.2559,0.2564,0.2567,0,0.165,0.1675,0.172,0.1786,0.1803,0.1836,0.193,0.1957,0.2036,0.2076,0.2155,0.2205,0.2286,0.2276,0.2489,0.2465,0.2549,0.2608,0.2617,0.2473,0.244,0.2503,0.262,0.2615,0.2612,0.2608,0.2605,0,0.1631,0.1689,0.1739,0.176,0.1814,0.1883,0.1948,0.2017,0.2043,0.2227,0.2301,0.2414,0.2535,0.2699,0.2736,0.2732,0.2999,0.3013,0.2831,0.2809,0.3017,0.2996,0.3206,0.3206,0.3206,0.3205,0.3205,0,0.1606,0.1645,0.1755,0.1774,0.1842,0.193,0.2028,0.2089,0.2203,0.2271,0.2409,0.2478,0.2708,0.2838,0.2863,0.2895,0.3112,0.2829,0.2859,0.2961,0.2935,0.3027,0.3006,0.3207,0.3207,0.3207,0.3206,0,0.1549,0.1613,0.167,0.1786,0.1825,0.1907,0.2039,0.2067,0.2246,0.2378,0.2463,0.2627,0.282,0.2902,0.3147,0.3036,0.3095,0.3049,0.3022,0.305,0.2696,0.2671,0.2861,0.2855,0.2849,0.2845,0.2841,0,0.1504,0.1529,0.1669,0.1697,0.176,0.1889,0.1906,0.2054,0.2097,0.241,0.2434,0.2707,0.2805,0.2886,0.3018,0.3036,0.3003,0.297,0.2902,0.2676,0.2687,0.2669,0.2652,0.2833,0.2832,0.283,0.2829,0,0.1391,0.1473,0.1514,0.1584,0.1635,0.1681,0.1789,0.1792,0.201,0.2216,0.2384,0.2506,0.2694,0.2788,0.2835,0.2835,0.2974,0.2914,0.2924,0.2861,0.2644,0.2657,0.2645,0.2811,0.2813,0.2815,0.2816,0,0.1292,0.1299,0.1358,0.1408,0.1479,0.1461,0.1542,0.1629,0.17,0.2074,0.214,0.2432,0.2691,0.2682,0.2711,0.2716,0.267,0.257,0.2597,0.2618,0.2515,0.2203,0.2275,0,0,0,0,0,0.1128,0.1082,0.1151,0.1182,0.1277,0.1313,0.141,0.1497,0.1758,0.1816,0.198,0.215,0.23,0.2397,0.2351,0.2533,0.262,0.2461,0.2502,0.271,0.2731,0.2631,0,0,0,0,0,0,0.0981,0.0991,0.1058,0.0997,0.1016,0.1044,0.1108,0.1273,0.1318,0.165,0.1717,0.202,0.2142,0.2334,0.2325,0.2354,0.2328,0.2637,0.2631,0.2698,0.2717,0.2734,0.2639,0,0,0,0,0]},{"header":{"parameterUnit":"m.s-1","parameterCategory":2,"la1":30.2991,"la2":30.254,"lo1":-89.0895,"lo2":-89.0444,"dy":0.0017,"dx":0.0017,"nx":28,"ny":28,"refTime":"2024-06-10T03:00:00:Z","depth":"4","parameterNumber":3,"parameterNumberName":"V-component_of_CURRENTS"},"data":[0,0,0,0,0,0,0,0,0,0,0,0,0,0,0,0,0,0,0,0,0,0,0,0,0,0,0,0,0,0,0,0,0,0,0,0,0,0,0,0,0,0,0,0,0,0,0,0,0,0,0,0,0,0,0,0,0,0,0.0097,0.0097,0,0.0089,0.0089,0.0089,0.0056,0.0056,0.0055,0.0054,0.0001,0.0,-0.0,0,0,0,0,0,0,0,0,0,0,0,0,0,0.0066,0.0067,0.0097,0.0097,0.0097,0.0089,0.0089,0.0089,0.0056,0.0055,0.0055,0.0054,0.0001,0.0,-0.0,0,0,0,0,0,0,0,0,0,0,0,0,0,0.007,0.0067,0.0097,0.0081,0.0079,0.0089,0.0089,0.0089,0.0056,0.0055,0.0055,0.0054,0.0002,0.0001,-0.0001,0.0011,0,0,-0.0004,-0.0005,0,0,0,0,0,0,0,0,0.007,0.0071,0.0083,0.0082,0.008,0.0074,0.0059,0.0061,0.0057,0.0064,0.0054,0.0053,0.0023,0.002,0.0019,0.0008,0.0006,-0.0005,-0.0005,-0.0006,-0.0006,0,0,0,0,0,0,0,0.007,0.0071,0.0092,0.0083,0.0082,0.0068,0.0068,0.0059,0.0047,0.0063,0.0061,0.0063,0.0022,0.0021,0.0018,0.0005,-0.0004,-0.0006,-0.0006,-0.0007,-0.0008,-0.0008,0,0,0,0,0,0,0.0076,0.0071,0.0093,0.0092,0.0074,0.007,0.0069,0.0076,0.0048,0.0043,0.0064,0.0061,0.0023,0.0019,0.0016,0.0049,-0.0006,-0.0007,-0.0008,-0.0009,-0.0008,-0.0007,0,0,0,0,0,0,0.0075,0.0078,0.0093,0.0082,0.0083,0.0072,0.0079,0.0076,0.0078,0.0049,0.0043,0.0069,0.0022,0.0017,0.0016,0.0045,-0.0008,-0.0009,-0.001,-0.0009,-0.0008,0.0101,0,0,0,0,0,0,0.0074,0.0078,0.0088,0.0083,0.0084,0.0108,0.008,0.0077,0.0081,0.0078,0.0052,0.0046,0.0021,0.0018,0.0015,0.0043,-0.001,-0.0011,-0.0009,-0.0008,0.0097,0.0106,0.0113,0,0,0,0,0,0.0073,0.0096,0.0089,0.0091,0.0098,0.0109,0.0109,0.0096,0.0083,0.0092,0.0073,0.0047,0.0023,0.0018,0.0014,0.0042,-0.0011,-0.001,-0.0008,0.0093,0.0104,0.0113,0,0,0,0,0,0,0.0083,0.0094,0.0086,0.0109,0.0112,0.0105,0.0116,0.0105,0.0099,0.0093,0.0061,0.0055,0.0065,0.0034,0.0029,0.0042,-0.0,0.0001,0.0078,0.0088,0.0096,0.0102,-0.0011,0,0,0,0,0,0.0092,0.0114,0.0113,0.0132,0.0137,0.0127,0.0131,0.0121,0.0114,0.011,0.0098,0.0077,0.0069,0.0063,0.005,0.0061,0.0,0.0072,0.008,0.0088,0.0088,0.0017,0.0019,-0.0002,-0.0002,-0.0002,0,0,0.0098,0.011,0.0119,0.0136,0.0137,0.0156,0.0127,0.0138,0.0158,0.0106,0.0132,0.011,0.0078,0.0092,0.0093,0.007,0.0063,0.009,0.0097,0.0093,0.0018,0.002,0.0022,-0.0001,-0.0001,-0.0002,0,0,0.0128,0.0135,0.0162,0.0174,0.0185,0.0181,0.0188,0.0189,0.0195,0.0214,0.0181,0.0178,0.017,0.0155,0.0144,0.0189,0.0112,0.0182,0.0231,0.0163,0.0164,0.0164,0.0096,0.0089,0.0184,0.0185,0.0185,0,0.0133,0.0169,0.0171,0.0202,0.0217,0.0197,0.0225,0.0234,0.0236,0.024,0.0234,0.0221,0.0202,0.0207,0.0227,0.0211,0.0149,0.0201,0.0174,0.0173,0.0171,0.0101,0.0092,0.019,0.0189,0.0189,0.0188,0,0.0181,0.0212,0.0232,0.0266,0.028,0.0303,0.0312,0.0331,0.0333,0.0327,0.034,0.0321,0.0305,0.0307,0.0287,0.0273,0.0226,0.0196,0.0151,0.018,0.0104,0.0093,0.0198,0.0196,0.0194,0.0193,0,0,0.019,0.0252,0.026,0.0292,0.0316,0.0337,0.0374,0.0394,0.0407,0.0418,0.0435,0.0438,0.041,0.0396,0.0368,0.0321,0.0272,0.0261,0.0255,0.0199,0.0108,0.0104,0.009,0.0227,0.0226,0.0225,0.0062,0,0.0226,0.0297,0.0315,0.0381,0.0417,0.0423,0.0461,0.0473,0.0471,0.0484,0.0466,0.0471,0.0448,0.0447,0.04,0.0308,0.0245,0.0318,0.0083,0.0076,0.0074,0.0079,0.022,0.0053,0.005,0.0048,0.0047,0,0.0268,0.0314,0.0382,0.045,0.0465,0.0501,0.054,0.0571,0.057,0.0568,0.0556,0.0525,0.05,0.0464,0.0317,0.0359,0.0242,0.0159,0.015,0.0099,0.0052,0.0014,0.0025,0.0027,0.0029,0.003,0.0031,0,0.0285,0.0364,0.0422,0.0447,0.0513,0.0551,0.0585,0.0594,0.0626,0.0618,0.0626,0.0564,0.0559,0.0412,0.0275,0.0279,0.0082,0.006,-0.0063,-0.0065,-0.0062,-0.0061,-0.0081,-0.008,-0.008,-0.0079,-0.0079,0,0.0323,0.0375,0.0443,0.0482,0.0568,0.059,0.0663,0.068,0.0692,0.0734,0.0677,0.0684,0.0542,0.0427,0.027,0.0082,0.0071,-0.0058,-0.0107,-0.0012,-0.0003,-0.0071,-0.0067,-0.0086,-0.0084,-0.0083,-0.0082,0,0.0345,0.0382,0.0469,0.055,0.0588,0.0654,0.075,0.0798,0.0788,0.084,0.0849,0.0769,0.0629,0.0455,0.0217,0.0095,-0.0102,-0.0182,-0.0064,-0.0103,-0.0209,-0.0198,-0.0333,-0.0334,-0.0335,-0.0336,-0.0337,0,0.0368,0.0415,0.053,0.0597,0.0647,0.0748,0.0831,0.0863,0.0901,0.0897,0.0922,0.0807,0.074,0.0408,0.0204,-0.0112,-0.0157,-0.027,-0.0235,-0.0201,-0.0235,-0.0222,-0.021,-0.0339,-0.034,-0.034,-0.034,0,0.0427,0.0465,0.0533,0.0658,0.0766,0.0886,0.0983,0.1013,0.105,0.1047,0.0988,0.0833,0.0668,0.0419,0.0175,-0.0052,-0.0194,-0.0284,-0.0283,-0.0251,-0.0211,-0.0241,-0.0227,-0.0345,-0.0344,-0.0343,-0.0343,0,0.0478,0.0538,0.0622,0.0731,0.086,0.0975,0.1029,0.1077,0.1109,0.1081,0.1061,0.088,0.0776,0.0446,0.0218,0.0004,-0.0053,-0.0127,-0.0135,-0.0133,-0.0019,0.0066,-0.0028,0,0,0,0,0,0.054,0.0606,0.0696,0.0819,0.0929,0.0998,0.1112,0.1143,0.1174,0.1151,0.1097,0.0942,0.0625,0.0477,0.0262,0.0178,-0.0102,-0.0084,-0.0193,-0.0368,-0.0363,-0.0263,0,0,0,0,0,0,0.059,0.0679,0.0703,0.0852,0.0931,0.1069,0.1141,0.1164,0.1125,0.1119,0.0951,0.0876,0.056,0.0751,0.0254,0.0187,0.0085,-0.0232,-0.0238,-0.0371,-0.0367,-0.0363,-0.0257,0,0,0,0,0]}]]